Time,TemperatureF,DewpointF,PressureIn,WindDirection,WindDirectionDegrees,WindSpeedMPH,WindSpeedGustMPH,Humidity,HourlyPrecipIn,Conditions,Clouds,dailyrainin,SolarRadiationWatts/m^2,SoftwareType,DateUTC
2013-01-21 00:02:00,23.0,4.3,30.20,NE,36,1.0,3.0,44,0.00,,,0.00,0,Wunderground v.1.15,2013-01-21 07:02:00,
2013-01-21 00:07:00,23.0,4.3,30.20,West,266,1.0,3.0,44,0.00,,,0.00,0,Wunderground v.1.15,2013-01-21 07:07:00,
2013-01-21 00:13:00,22.9,4.2,30.20,West,259,1.0,1.0,44,0.00,,,0.00,0,Wunderground v.1.15,2013-01-21 07:13:00,
2013-01-21 00:18:00,22.8,4.6,30.20,SW,225,1.0,4.0,45,0.00,,,0.00,0,Wunderground v.1.15,2013-01-21 07:18:00,
2013-01-21 00:23:00,22.7,4.5,30.20,SW,229,2.0,4.0,45,0.00,,,0.00,0,Wunderground v.1.15,2013-01-21 07:23:00,
2013-01-21 00:29:00,22.5,4.3,30.20,SSE,161,2.0,6.0,45,0.00,,,0.00,0,Wunderground v.1.15,2013-01-21 07:29:00,
2013-01-21 00:35:00,22.4,4.2,30.20,SSE,167,3.0,6.0,45,0.00,,,0.00,0,Wunderground v.1.15,2013-01-21 07:35:00,
2013-01-21 00:40:00,22.3,4.6,30.19,SE,142,3.0,3.0,46,0.00,,,0.00,0,Wunderground v.1.15,2013-01-21 07:40:00,
2013-01-21 00:46:00,22.2,4.5,30.19,SSE,167,2.0,5.0,46,0.00,,,0.00,0,Wunderground v.1.15,2013-01-21 07:46:00,
2013-01-21 00:51:00,22.2,4.5,30.19,SSW,193,2.0,3.0,46,0.00,,,0.00,0,Wunderground v.1.15,2013-01-21 07:51:00,
2013-01-21 00:57:00,22.1,4.4,30.19,SE,130,3.0,5.0,46,0.00,,,0.00,0,Wunderground v.1.15,2013-01-21 07:57:00,
2013-01-21 01:03:00,22.0,3.9,30.19,SE,141,3.0,3.0,45,0.00,,,0.00,0,Wunderground v.1.15,2013-01-21 08:03:00,
2013-01-21 01:09:00,22.1,4.4,30.19,SE,136,2.0,4.0,46,0.00,,,0.00,0,Wunderground v.1.15,2013-01-21 08:09:00,
2013-01-21 01:15:00,22.2,4.1,30.20,NW,307,3.0,5.0,45,0.00,,,0.00,0,Wunderground v.1.15,2013-01-21 08:15:00,
2013-01-21 01:21:00,22.4,4.2,30.20,WNW,290,2.0,3.0,45,0.00,,,0.00,0,Wunderground v.1.15,2013-01-21 08:21:00,
2013-01-21 01:26:00,22.7,3.5,30.20,WNW,296,1.0,3.0,43,0.00,,,0.00,0,Wunderground v.1.15,2013-01-21 08:26:00,
2013-01-21 01:32:00,23.1,3.4,30.20,NW,324,1.0,1.0,42,0.00,,,0.00,0,Wunderground v.1.15,2013-01-21 08:32:00,
2013-01-21 01:38:00,23.5,3.2,30.20,NW,325,1.0,1.0,41,0.00,,,0.00,0,Wunderground v.1.15,2013-01-21 08:38:00,
2013-01-21 01:43:00,23.8,3.0,30.20,NNW,335,0.0,2.0,40,0.00,,,0.00,0,Wunderground v.1.15,2013-01-21 08:43:00,
2013-01-21 01:49:00,24.4,2.9,30.20,WNW,295,1.0,3.0,39,0.00,,,0.00,0,Wunderground v.1.15,2013-01-21 08:49:00,
2013-01-21 01:54:00,25.1,3.0,30.20,NW,326,2.0,7.0,38,0.00,,,0.00,0,Wunderground v.1.15,2013-01-21 08:54:00,
2013-01-21 02:00:00,25.9,3.2,30.21,NW,325,2.0,2.0,37,0.00,,,0.00,0,Wunderground v.1.15,2013-01-21 09:00:00,
2013-01-21 02:05:00,26.4,3.0,30.20,West,279,2.0,7.0,36,0.00,,,0.00,0,Wunderground v.1.15,2013-01-21 09:05:00,
2013-01-21 02:11:00,26.9,2.8,30.21,West,281,2.0,3.0,35,0.00,,,0.00,0,Wunderground v.1.15,2013-01-21 09:11:00,
2013-01-21 02:17:00,27.4,2.7,30.20,West,261,2.0,8.0,34,0.00,,,0.00,0,Wunderground v.1.15,2013-01-21 09:17:00,
2013-01-21 02:22:00,27.8,3.0,30.20,West,276,3.0,4.0,34,0.00,,,0.00,0,Wunderground v.1.15,2013-01-21 09:22:00,
2013-01-21 02:27:00,28.1,3.3,30.21,NW,305,4.0,4.0,34,0.00,,,0.00,0,Wunderground v.1.15,2013-01-21 09:27:00,
2013-01-21 02:33:00,28.5,3.0,30.21,WNW,297,4.0,10.0,33,0.00,,,0.00,0,Wunderground v.1.15,2013-01-21 09:33:00,
2013-01-21 02:39:00,28.7,3.2,30.21,North,360,4.0,10.0,33,0.00,,,0.00,0,Wunderground v.1.15,2013-01-21 09:39:00,
2013-01-21 02:45:00,28.8,3.3,30.21,West,268,3.0,9.0,33,0.00,,,0.00,0,Wunderground v.1.15,2013-01-21 09:45:00,
2013-01-21 02:50:00,28.9,3.4,30.21,WNW,300,4.0,4.0,33,0.00,,,0.00,0,Wunderground v.1.15,2013-01-21 09:50:00,
2013-01-21 02:56:00,29.0,3.4,30.21,West,279,3.0,5.0,33,0.00,,,0.00,0,Wunderground v.1.15,2013-01-21 09:56:00,
2013-01-21 03:02:00,29.0,3.4,30.21,West,264,3.0,8.0,33,0.00,,,0.00,0,Wunderground v.1.15,2013-01-21 10:02:00,
2013-01-21 03:07:00,29.0,3.4,30.21,SSW,207,3.0,8.0,33,0.00,,,0.00,0,Wunderground v.1.15,2013-01-21 10:07:00,
2013-01-21 03:13:00,29.2,2.9,30.21,West,263,5.0,5.0,32,0.00,,,0.00,0,Wunderground v.1.15,2013-01-21 10:13:00,
2013-01-21 03:18:00,29.3,3.0,30.21,WNW,294,5.0,6.0,32,0.00,,,0.00,0,Wunderground v.1.15,2013-01-21 10:18:00,
2013-01-21 03:24:00,29.3,3.0,30.21,SW,230,4.0,5.0,32,0.00,,,0.00,0,Wunderground v.1.15,2013-01-21 10:24:00,
2013-01-21 03:30:00,29.2,2.9,30.21,WNW,298,4.0,4.0,32,0.00,,,0.00,0,Wunderground v.1.15,2013-01-21 10:30:00,
2013-01-21 03:35:00,29.2,2.9,30.21,WNW,299,4.0,7.0,32,0.00,,,0.00,0,Wunderground v.1.15,2013-01-21 10:35:00,
2013-01-21 03:40:00,29.2,2.9,30.21,NNW,342,4.0,4.0,32,0.00,,,0.00,0,Wunderground v.1.15,2013-01-21 10:40:00,
2013-01-21 03:45:00,29.2,2.9,30.21,WNW,291,4.0,6.0,32,0.00,,,0.00,0,Wunderground v.1.15,2013-01-21 10:45:00,
2013-01-21 03:51:00,29.2,2.9,30.21,West,260,4.0,5.0,32,0.00,,,0.00,0,Wunderground v.1.15,2013-01-21 10:51:00,
2013-01-21 03:57:00,29.2,2.9,30.21,NNW,334,4.0,5.0,32,0.00,,,0.00,0,Wunderground v.1.15,2013-01-21 10:57:00,
2013-01-21 04:02:00,29.1,2.9,30.21,West,260,3.0,12.0,32,0.00,,,0.00,0,Wunderground v.1.15,2013-01-21 11:02:00,
2013-01-21 04:08:00,29.0,2.8,30.21,West,272,3.0,12.0,32,0.00,,,0.00,0,Wunderground v.1.15,2013-01-21 11:08:00,
2013-01-21 04:14:00,29.0,2.8,30.21,North,355,3.0,5.0,32,0.00,,,0.00,0,Wunderground v.1.15,2013-01-21 11:14:00,
2013-01-21 04:19:00,28.9,2.7,30.21,NW,326,4.0,5.0,32,0.00,,,0.00,0,Wunderground v.1.15,2013-01-21 11:19:00,
2013-01-21 04:24:00,28.9,2.7,30.21,West,263,4.0,6.0,32,0.00,,,0.00,0,Wunderground v.1.15,2013-01-21 11:24:00,
2013-01-21 04:30:00,29.0,2.8,30.21,NW,306,4.0,4.0,32,0.00,,,0.00,0,Wunderground v.1.15,2013-01-21 11:30:00,
2013-01-21 04:35:00,29.2,2.9,30.21,NNW,328,4.0,9.0,32,0.00,,,0.00,0,Wunderground v.1.15,2013-01-21 11:35:00,
2013-01-21 04:40:00,29.2,2.9,30.21,WNW,290,4.0,4.0,32,0.00,,,0.00,0,Wunderground v.1.15,2013-01-21 11:40:00,
2013-01-21 04:46:00,29.1,2.9,30.21,West,259,3.0,6.0,32,0.00,,,0.00,0,Wunderground v.1.15,2013-01-21 11:46:00,
2013-01-21 04:52:00,29.0,2.8,30.21,West,273,4.0,8.0,32,0.00,,,0.00,0,Wunderground v.1.15,2013-01-21 11:52:00,
2013-01-21 04:58:00,29.0,2.8,30.21,West,273,4.0,8.0,32,0.00,,,0.00,0,Wunderground v.1.15,2013-01-21 11:58:00,
2013-01-21 05:03:00,29.1,2.9,30.21,NW,325,5.0,10.0,32,0.00,,,0.00,0,Wunderground v.1.15,2013-01-21 12:03:00,
2013-01-21 05:09:00,29.1,2.9,30.21,NW,320,5.0,10.0,32,0.00,,,0.00,0,Wunderground v.1.15,2013-01-21 12:09:00,
2013-01-21 05:14:00,29.2,2.9,30.21,WSW,252,3.0,5.0,32,0.00,,,0.00,0,Wunderground v.1.15,2013-01-21 12:14:00,
2013-01-21 05:19:00,29.1,2.9,30.21,WNW,294,2.0,5.0,32,0.00,,,0.00,0,Wunderground v.1.15,2013-01-21 12:19:00,
2013-01-21 05:25:00,29.0,2.8,30.21,WNW,291,2.0,4.0,32,0.00,,,0.00,0,Wunderground v.1.15,2013-01-21 12:25:00,
2013-01-21 05:31:00,29.0,2.8,30.21,NW,309,3.0,9.0,32,0.00,,,0.00,0,Wunderground v.1.15,2013-01-21 12:31:00,
2013-01-21 05:36:00,29.0,3.4,30.21,WSW,249,4.0,9.0,33,0.00,,,0.00,0,Wunderground v.1.15,2013-01-21 12:36:00,
2013-01-21 05:42:00,29.0,3.4,30.21,NNW,330,5.0,5.0,33,0.00,,,0.00,0,Wunderground v.1.15,2013-01-21 12:42:00,
2013-01-21 05:47:00,29.0,3.4,30.21,West,271,4.0,9.0,33,0.00,,,0.00,0,Wunderground v.1.15,2013-01-21 12:47:00,
2013-01-21 05:53:00,29.1,3.5,30.21,West,275,4.0,9.0,33,0.00,,,0.00,0,Wunderground v.1.15,2013-01-21 12:53:00,
2013-01-21 05:58:00,29.2,2.9,30.22,WNW,302,4.0,9.0,32,0.00,,,0.00,0,Wunderground v.1.15,2013-01-21 12:58:00,
2013-01-21 06:04:00,29.4,3.1,30.22,NNW,342,5.0,11.0,32,0.00,,,0.00,0,Wunderground v.1.15,2013-01-21 13:04:00,
2013-01-21 06:09:00,29.5,3.2,30.22,WNW,300,5.0,11.0,32,0.00,,,0.00,0,Wunderground v.1.15,2013-01-21 13:09:00,
2013-01-21 06:14:00,29.5,3.2,30.22,NW,304,4.0,11.0,32,0.00,,,0.00,0,Wunderground v.1.15,2013-01-21 13:14:00,
2013-01-21 06:20:00,29.4,3.1,30.22,West,260,4.0,4.0,32,0.00,,,0.00,0,Wunderground v.1.15,2013-01-21 13:20:00,
2013-01-21 06:26:00,29.2,3.6,30.22,SW,221,4.0,6.0,33,0.00,,,0.00,0,Wunderground v.1.15,2013-01-21 13:26:00,
2013-01-21 06:31:00,28.9,3.4,30.22,SW,233,5.0,5.0,33,0.00,,,0.00,0,Wunderground v.1.15,2013-01-21 13:31:00,
2013-01-21 06:37:00,28.8,3.3,30.22,SW,229,4.0,7.0,33,0.00,,,0.00,0,Wunderground v.1.15,2013-01-21 13:37:00,
2013-01-21 06:42:00,28.8,3.3,30.22,NW,304,4.0,9.0,33,0.00,,,0.00,0,Wunderground v.1.15,2013-01-21 13:42:00,
2013-01-21 06:48:00,28.8,3.3,30.23,WSW,254,3.0,9.0,33,0.00,,,0.00,0,Wunderground v.1.15,2013-01-21 13:48:00,
2013-01-21 06:53:00,28.8,3.3,30.23,WNW,284,4.0,5.0,33,0.00,,,0.00,0,Wunderground v.1.15,2013-01-21 13:53:00,
2013-01-21 06:58:00,28.8,3.3,30.24,WNW,298,4.0,5.0,33,0.00,,,0.00,0,Wunderground v.1.15,2013-01-21 13:58:00,
2013-01-21 07:04:00,28.9,3.4,30.24,WSW,249,4.0,15.0,33,0.00,,,0.00,0,Wunderground v.1.15,2013-01-21 14:04:00,
2013-01-21 07:10:00,28.9,3.4,30.24,WNW,296,3.0,4.0,33,0.00,,,0.00,0,Wunderground v.1.15,2013-01-21 14:10:00,
2013-01-21 07:15:00,29.2,3.6,30.24,WNW,284,5.0,10.0,33,0.00,,,0.00,5,Wunderground v.1.15,2013-01-21 14:15:00,
2013-01-21 07:21:00,29.6,4.0,30.24,NNE,25,7.0,13.0,33,0.00,,,0.00,7,Wunderground v.1.15,2013-01-21 14:21:00,
2013-01-21 07:27:00,29.6,4.0,30.24,WSW,241,6.0,13.0,33,0.00,,,0.00,9,Wunderground v.1.15,2013-01-21 14:27:00,
2013-01-21 07:32:00,29.5,3.9,30.24,SW,223,5.0,6.0,33,0.00,,,0.00,11,Wunderground v.1.15,2013-01-21 14:32:00,
2013-01-21 07:38:00,29.2,3.6,30.24,West,269,5.0,6.0,33,0.00,,,0.00,11,Wunderground v.1.15,2013-01-21 14:38:00,
2013-01-21 07:44:00,28.8,3.3,30.24,NW,313,3.0,7.0,33,0.00,,,0.00,12,Wunderground v.1.15,2013-01-21 14:44:00,
2013-01-21 07:49:00,28.5,3.6,30.24,WSW,237,2.0,7.0,34,0.00,,,0.00,14,Wunderground v.1.15,2013-01-21 14:49:00,
2013-01-21 07:55:00,27.8,3.0,30.24,South,175,2.0,7.0,34,0.00,,,0.00,14,Wunderground v.1.15,2013-01-21 14:55:00,
2013-01-21 08:00:00,27.3,2.6,30.24,WNW,287,2.0,7.0,34,0.00,,,0.00,16,Wunderground v.1.15,2013-01-21 15:00:00,
2013-01-21 08:05:00,27.4,3.3,30.24,WSW,250,4.0,13.0,35,0.00,,,0.00,18,Wunderground v.1.15,2013-01-21 15:05:00,
2013-01-21 08:11:00,27.9,3.1,30.24,West,280,5.0,5.0,34,0.00,,,0.00,18,Wunderground v.1.15,2013-01-21 15:11:00,
2013-01-21 08:17:00,28.3,3.5,30.24,WSW,245,4.0,5.0,34,0.00,,,0.00,19,Wunderground v.1.15,2013-01-21 15:17:00,
2013-01-21 08:22:00,28.6,3.7,30.25,SSW,199,4.0,6.0,34,0.00,,,0.00,23,Wunderground v.1.15,2013-01-21 15:22:00,
2013-01-21 08:27:00,29.0,3.4,30.25,WNW,300,5.0,13.0,33,0.00,,,0.00,25,Wunderground v.1.15,2013-01-21 15:27:00,
2013-01-21 08:32:00,29.5,3.9,30.25,West,274,6.0,10.0,33,0.00,,,0.00,30,Wunderground v.1.15,2013-01-21 15:32:00,
2013-01-21 08:37:00,30.0,4.3,30.26,SW,233,6.0,10.0,33,0.00,,,0.00,35,Wunderground v.1.15,2013-01-21 15:37:00,
2013-01-21 08:42:00,30.3,4.6,30.26,NW,308,5.0,10.0,33,0.00,,,0.00,35,Wunderground v.1.15,2013-01-21 15:42:00,
2013-01-21 08:47:00,30.6,4.2,30.26,West,273,6.0,10.0,32,0.00,,,0.00,32,Wunderground v.1.15,2013-01-21 15:47:00,
2013-01-21 08:53:00,31.0,4.5,30.26,WSW,248,6.0,10.0,32,0.00,,,0.00,26,Wunderground v.1.15,2013-01-21 15:53:00,
2013-01-21 08:58:00,31.2,4.7,30.26,WNW,298,7.0,10.0,32,0.00,,,0.00,25,Wunderground v.1.15,2013-01-21 15:58:00,
2013-01-21 09:04:00,31.4,4.9,30.26,WSW,238,6.0,13.0,32,0.00,,,0.00,23,Wunderground v.1.15,2013-01-21 16:04:00,
2013-01-21 09:10:00,31.5,4.3,30.26,WSW,242,6.0,6.0,31,0.00,,,0.00,25,Wunderground v.1.15,2013-01-21 16:10:00,
2013-01-21 09:16:00,31.5,5.0,30.26,SW,234,5.0,6.0,32,0.00,,,0.00,62,Wunderground v.1.15,2013-01-21 16:16:00,
2013-01-21 09:21:00,31.5,5.0,30.26,SW,221,3.0,4.0,32,0.00,,,0.00,339,Wunderground v.1.15,2013-01-21 16:21:00,
2013-01-21 09:27:00,31.5,5.0,30.27,SW,235,3.0,8.0,32,0.00,,,0.00,352,Wunderground v.1.15,2013-01-21 16:27:00,
2013-01-21 09:33:00,31.6,5.7,30.26,West,275,4.0,6.0,33,0.00,,,0.00,367,Wunderground v.1.15,2013-01-21 16:33:00,
2013-01-21 09:38:00,31.7,5.2,30.26,WNW,291,3.0,6.0,32,0.00,,,0.00,378,Wunderground v.1.15,2013-01-21 16:38:00,
2013-01-21 09:43:00,32.0,4.7,30.26,West,264,3.0,5.0,31,0.00,,,0.00,390,Wunderground v.1.15,2013-01-21 16:43:00,
2013-01-21 09:48:00,32.3,5.0,30.26,SSE,165,3.0,5.0,31,0.00,,,0.00,401,Wunderground v.1.15,2013-01-21 16:48:00,
2013-01-21 09:54:00,32.4,5.1,30.26,WSW,240,3.0,7.0,31,0.00,,,0.00,415,Wunderground v.1.15,2013-01-21 16:54:00,
2013-01-21 09:59:00,32.5,5.2,30.26,SSW,207,4.0,8.0,31,0.00,,,0.00,424,Wunderground v.1.15,2013-01-21 16:59:00,
2013-01-21 10:05:00,33.1,5.0,30.26,West,260,4.0,14.0,30,0.00,,,0.00,438,Wunderground v.1.15,2013-01-21 17:05:00,
2013-01-21 10:11:00,33.8,5.6,30.27,WNW,302,4.0,4.0,30,0.00,,,0.00,450,Wunderground v.1.15,2013-01-21 17:11:00,
2013-01-21 10:16:00,34.1,5.9,30.27,WSW,241,3.0,5.0,30,0.00,,,0.00,461,Wunderground v.1.15,2013-01-21 17:16:00,
2013-01-21 10:21:00,34.4,5.4,30.27,NW,310,3.0,5.0,29,0.00,,,0.00,468,Wunderground v.1.15,2013-01-21 17:21:00,
2013-01-21 10:27:00,34.4,5.4,30.26,WNW,293,4.0,6.0,29,0.00,,,0.00,478,Wunderground v.1.15,2013-01-21 17:27:00,
2013-01-21 10:33:00,35.3,6.9,30.26,West,280,4.0,5.0,30,0.00,,,0.00,489,Wunderground v.1.15,2013-01-21 17:33:00,
2013-01-21 10:38:00,35.4,6.2,30.26,WSW,254,4.0,6.0,29,0.00,,,0.00,497,Wunderground v.1.15,2013-01-21 17:38:00,
2013-01-21 10:44:00,35.7,6.5,30.26,West,263,3.0,7.0,29,0.00,,,0.00,506,Wunderground v.1.15,2013-01-21 17:44:00,
2013-01-21 10:49:00,35.9,5.9,30.26,SSE,150,4.0,7.0,28,0.00,,,0.00,513,Wunderground v.1.15,2013-01-21 17:49:00,
2013-01-21 10:54:00,36.0,6.8,30.26,WSW,251,4.0,5.0,29,0.00,,,0.00,520,Wunderground v.1.15,2013-01-21 17:54:00,
2013-01-21 11:00:00,35.9,6.7,30.26,SSE,164,4.0,4.0,29,0.00,,,0.00,527,Wunderground v.1.15,2013-01-21 18:00:00,
2013-01-21 11:05:00,35.5,7.1,30.26,SSW,198,3.0,11.0,30,0.00,,,0.00,533,Wunderground v.1.15,2013-01-21 18:05:00,
2013-01-21 11:11:00,36.9,7.5,30.25,SE,130,3.0,7.0,29,0.00,,,0.00,538,Wunderground v.1.15,2013-01-21 18:11:00,
2013-01-21 11:16:00,36.3,7.0,30.25,SE,146,4.0,7.0,29,0.00,,,0.00,543,Wunderground v.1.15,2013-01-21 18:16:00,
2013-01-21 11:21:00,36.1,6.9,30.25,SSE,149,4.0,5.0,29,0.00,,,0.00,550,Wunderground v.1.15,2013-01-21 18:21:00,
2013-01-21 11:26:00,36.8,7.5,30.25,South,173,3.0,5.0,29,0.00,,,0.00,554,Wunderground v.1.15,2013-01-21 18:26:00,
2013-01-21 11:32:00,37.5,8.1,30.24,WNW,296,3.0,12.0,29,0.00,,,0.00,557,Wunderground v.1.15,2013-01-21 18:32:00,
2013-01-21 11:38:00,37.9,7.6,30.24,NW,305,5.0,12.0,28,0.00,,,0.00,561,Wunderground v.1.15,2013-01-21 18:38:00,
2013-01-21 11:43:00,38.0,7.7,30.24,South,182,5.0,9.0,28,0.00,,,0.00,563,Wunderground v.1.15,2013-01-21 18:43:00,
2013-01-21 11:48:00,38.9,8.5,30.24,West,264,5.0,9.0,28,0.00,,,0.00,566,Wunderground v.1.15,2013-01-21 18:48:00,
2013-01-21 11:53:00,39.0,7.8,30.24,WSW,237,4.0,4.0,27,0.00,,,0.00,566,Wunderground v.1.15,2013-01-21 18:53:00,
2013-01-21 11:59:00,39.7,8.4,30.23,NNW,342,3.0,8.0,27,0.00,,,0.00,568,Wunderground v.1.15,2013-01-21 18:59:00,
2013-01-21 12:04:00,39.7,9.2,30.23,SW,225,4.0,12.0,28,0.00,,,0.00,570,Wunderground v.1.15,2013-01-21 19:04:00,
2013-01-21 12:09:00,39.5,7.4,30.23,NNW,343,5.0,12.0,26,0.00,,,0.00,570,Wunderground v.1.15,2013-01-21 19:09:00,
2013-01-21 12:15:00,38.9,7.7,30.23,NW,315,7.0,9.0,27,0.00,,,0.00,570,Wunderground v.1.15,2013-01-21 19:15:00,
2013-01-21 12:21:00,39.3,8.0,30.23,North,355,6.0,11.0,27,0.00,,,0.00,568,Wunderground v.1.15,2013-01-21 19:21:00,
2013-01-21 12:26:00,39.1,7.9,30.23,WSW,244,6.0,11.0,27,0.00,,,0.00,568,Wunderground v.1.15,2013-01-21 19:26:00,
2013-01-21 12:32:00,39.1,7.9,30.23,WNW,284,7.0,9.0,27,0.00,,,0.00,566,Wunderground v.1.15,2013-01-21 19:32:00,
2013-01-21 12:38:00,40.1,8.7,30.22,WSW,240,6.0,9.0,27,0.00,,,0.00,563,Wunderground v.1.15,2013-01-21 19:38:00,
2013-01-21 12:43:00,40.6,9.2,30.23,WNW,290,4.0,9.0,27,0.00,,,0.00,561,Wunderground v.1.15,2013-01-21 19:43:00,
2013-01-21 12:48:00,41.0,8.7,30.23,West,281,4.0,9.0,26,0.00,,,0.00,557,Wunderground v.1.15,2013-01-21 19:48:00,
2013-01-21 12:54:00,40.0,8.7,30.23,West,265,6.0,10.0,27,0.00,,,0.00,554,Wunderground v.1.15,2013-01-21 19:54:00,
2013-01-21 12:59:00,40.8,9.3,30.23,SSW,206,6.0,10.0,27,0.00,,,0.00,552,Wunderground v.1.15,2013-01-21 19:59:00,
2013-01-21 13:04:00,40.3,8.9,30.22,West,279,6.0,16.0,27,0.00,,,0.00,547,Wunderground v.1.15,2013-01-21 20:04:00,
2013-01-21 13:10:00,40.1,8.7,30.22,WNW,290,7.0,11.0,27,0.00,,,0.00,541,Wunderground v.1.15,2013-01-21 20:10:00,
2013-01-21 13:15:00,40.5,9.1,30.22,SW,233,7.0,11.0,27,0.00,,,0.00,536,Wunderground v.1.15,2013-01-21 20:15:00,
2013-01-21 13:21:00,41.1,8.8,30.22,WNW,294,5.0,8.0,26,0.00,,,0.00,531,Wunderground v.1.15,2013-01-21 20:21:00,
2013-01-21 13:26:00,40.6,8.3,30.21,WSW,245,6.0,9.0,26,0.00,,,0.00,524,Wunderground v.1.15,2013-01-21 20:26:00,
2013-01-21 13:31:00,40.1,8.7,30.20,WSW,250,7.0,7.0,27,0.00,,,0.00,519,Wunderground v.1.15,2013-01-21 20:31:00,
2013-01-21 13:37:00,40.4,8.2,30.20,SW,228,7.0,15.0,26,0.00,,,0.00,510,Wunderground v.1.15,2013-01-21 20:37:00,
2013-01-21 13:43:00,40.8,9.3,30.21,SSW,206,7.0,7.0,27,0.00,,,0.00,503,Wunderground v.1.15,2013-01-21 20:43:00,
2013-01-21 13:48:00,40.8,8.5,30.20,South,190,7.0,12.0,26,0.00,,,0.00,492,Wunderground v.1.15,2013-01-21 20:48:00,
2013-01-21 13:53:00,40.6,8.3,30.20,South,175,8.0,19.0,26,0.00,,,0.00,485,Wunderground v.1.15,2013-01-21 20:53:00,
2013-01-21 13:59:00,41.0,9.5,30.20,SW,221,8.0,19.0,27,0.00,,,0.00,475,Wunderground v.1.15,2013-01-21 20:59:00,
2013-01-21 14:04:00,41.3,8.9,30.20,WSW,248,6.0,15.0,26,0.00,,,0.00,466,Wunderground v.1.15,2013-01-21 21:04:00,
2013-01-21 14:10:00,41.8,9.4,30.20,SW,215,6.0,12.0,26,0.00,,,0.00,454,Wunderground v.1.15,2013-01-21 21:10:00,
2013-01-21 14:16:00,41.6,9.2,30.19,SSW,197,7.0,12.0,26,0.00,,,0.00,443,Wunderground v.1.15,2013-01-21 21:16:00,
2013-01-21 14:22:00,41.8,9.4,30.20,SE,142,7.0,10.0,26,0.00,,,0.00,431,Wunderground v.1.15,2013-01-21 21:22:00,
2013-01-21 14:27:00,42.1,8.7,30.20,South,188,6.0,10.0,25,0.00,,,0.00,420,Wunderground v.1.15,2013-01-21 21:27:00,
2013-01-21 14:33:00,41.8,8.5,30.20,South,182,7.0,12.0,25,0.00,,,0.00,408,Wunderground v.1.15,2013-01-21 21:33:00,
2013-01-21 14:38:00,42.0,9.5,30.19,West,272,7.0,12.0,26,0.00,,,0.00,396,Wunderground v.1.15,2013-01-21 21:38:00,
2013-01-21 14:44:00,42.4,9.9,30.19,West,278,7.0,16.0,26,0.00,,,0.00,381,Wunderground v.1.15,2013-01-21 21:44:00,
2013-01-21 14:49:00,42.1,9.6,30.19,SW,234,7.0,16.0,26,0.00,,,0.00,371,Wunderground v.1.15,2013-01-21 21:49:00,
2013-01-21 14:54:00,42.3,8.9,30.19,West,265,8.0,10.0,25,0.00,,,0.00,360,Wunderground v.1.15,2013-01-21 21:54:00,
2013-01-21 14:59:00,42.3,9.8,30.19,WSW,254,7.0,15.0,26,0.00,,,0.00,348,Wunderground v.1.15,2013-01-21 21:59:00,
2013-01-21 15:04:00,42.7,10.1,30.18,SSW,194,7.0,20.0,26,0.00,,,0.00,336,Wunderground v.1.15,2013-01-21 22:04:00,
2013-01-21 15:10:00,42.7,9.3,30.19,West,272,7.0,7.0,25,0.00,,,0.00,436,Wunderground v.1.15,2013-01-21 22:10:00,
2013-01-21 15:15:00,42.4,9.0,30.19,West,263,8.0,9.0,25,0.00,,,0.00,329,Wunderground v.1.15,2013-01-21 22:15:00,
2013-01-21 15:20:00,42.4,9.9,30.19,SW,235,8.0,8.0,26,0.00,,,0.00,287,Wunderground v.1.15,2013-01-21 22:20:00,
2013-01-21 15:26:00,42.4,9.9,30.19,WNW,290,7.0,10.0,26,0.00,,,0.00,265,Wunderground v.1.15,2013-01-21 22:26:00,
2013-01-21 15:31:00,42.4,9.0,30.19,SSW,200,7.0,8.0,25,0.00,,,0.00,248,Wunderground v.1.15,2013-01-21 22:31:00,
2013-01-21 15:36:00,42.5,9.1,30.19,SSW,207,7.0,8.0,25,0.00,,,0.00,232,Wunderground v.1.15,2013-01-21 22:36:00,
2013-01-21 15:41:00,42.3,8.9,30.19,WNW,284,7.0,7.0,25,0.00,,,0.00,213,Wunderground v.1.15,2013-01-21 22:41:00,
2013-01-21 15:46:00,42.3,9.8,30.19,West,261,7.0,15.0,26,0.00,,,0.00,193,Wunderground v.1.15,2013-01-21 22:46:00,
2013-01-21 15:52:00,42.6,10.1,30.19,WSW,250,7.0,7.0,26,0.00,,,0.00,171,Wunderground v.1.15,2013-01-21 22:52:00,
2013-01-21 15:58:00,42.1,9.6,30.19,West,270,5.0,19.0,26,0.00,,,0.00,149,Wunderground v.1.15,2013-01-21 22:58:00,
2013-01-21 16:03:00,42.0,9.5,30.19,WSW,253,7.0,18.0,26,0.00,,,0.00,135,Wunderground v.1.15,2013-01-21 23:03:00,
2013-01-21 16:09:00,42.3,9.8,30.20,West,267,6.0,18.0,26,0.00,,,0.00,116,Wunderground v.1.15,2013-01-21 23:09:00,
2013-01-21 16:14:00,42.3,9.8,30.20,SSE,150,5.0,6.0,26,0.00,,,0.00,98,Wunderground v.1.15,2013-01-21 23:14:00,
2013-01-21 16:19:00,42.0,9.5,30.20,North,360,5.0,11.0,26,0.00,,,0.00,86,Wunderground v.1.15,2013-01-21 23:19:00,
2013-01-21 16:25:00,41.8,9.4,30.20,West,268,6.0,13.0,26,0.00,,,0.00,70,Wunderground v.1.15,2013-01-21 23:25:00,
2013-01-21 16:30:00,41.7,9.3,30.21,SW,230,5.0,5.0,26,0.00,,,0.00,47,Wunderground v.1.15,2013-01-21 23:30:00,
2013-01-21 16:35:00,41.3,8.9,30.20,SW,236,5.0,12.0,26,0.00,,,0.00,30,Wunderground v.1.15,2013-01-21 23:35:00,
2013-01-21 16:41:00,41.0,8.7,30.20,SW,232,5.0,5.0,26,0.00,,,0.00,25,Wunderground v.1.15,2013-01-21 23:41:00,
2013-01-21 16:46:00,40.3,8.1,30.20,WSW,238,6.0,12.0,26,0.00,,,0.00,19,Wunderground v.1.15,2013-01-21 23:46:00,
2013-01-21 16:52:00,39.5,8.2,30.20,WNW,298,6.0,9.0,27,0.00,,,0.00,18,Wunderground v.1.15,2013-01-21 23:52:00,
2013-01-21 16:57:00,39.0,7.8,30.20,WSW,247,6.0,13.0,27,0.00,,,0.00,14,Wunderground v.1.15,2013-01-21 23:57:00,
2013-01-21 17:02:00,38.6,7.4,30.21,West,281,6.0,21.0,27,0.00,,,0.00,11,Wunderground v.1.15,2013-01-22 00:02:00,
2013-01-21 17:08:00,38.3,8.0,30.21,NNW,344,5.0,21.0,28,0.00,,,0.00,9,Wunderground v.1.15,2013-01-22 00:08:00,
2013-01-21 17:13:00,38.3,7.2,30.21,WNW,291,7.0,9.0,27,0.00,,,0.00,9,Wunderground v.1.15,2013-01-22 00:13:00,
2013-01-21 17:19:00,38.1,7.0,30.21,West,265,8.0,9.0,27,0.00,,,0.00,7,Wunderground v.1.15,2013-01-22 00:19:00,
2013-01-21 17:24:00,37.8,7.6,30.20,West,279,8.0,9.0,28,0.00,,,0.00,0,Wunderground v.1.15,2013-01-22 00:24:00,
2013-01-21 17:29:00,37.5,7.3,30.20,NW,326,8.0,9.0,28,0.00,,,0.00,0,Wunderground v.1.15,2013-01-22 00:29:00,
2013-01-21 17:34:00,37.3,7.1,30.20,NW,311,9.0,13.0,28,0.00,,,0.00,0,Wunderground v.1.15,2013-01-22 00:34:00,
2013-01-21 17:40:00,37.3,7.1,30.20,North,350,9.0,9.0,28,0.00,,,0.00,0,Wunderground v.1.15,2013-01-22 00:40:00,
2013-01-21 17:45:00,37.2,7.0,30.21,West,277,7.0,11.0,28,0.00,,,0.00,0,Wunderground v.1.15,2013-01-22 00:45:00,
2013-01-21 17:51:00,37.2,7.0,30.21,WSW,242,7.0,7.0,28,0.00,,,0.00,0,Wunderground v.1.15,2013-01-22 00:51:00,
2013-01-21 17:56:00,37.0,6.9,30.21,WSW,252,7.0,16.0,28,0.00,,,0.00,0,Wunderground v.1.15,2013-01-22 00:56:00,
2013-01-21 18:01:00,36.8,6.7,30.21,SW,227,7.0,17.0,28,0.00,,,0.00,0,Wunderground v.1.15,2013-01-22 01:01:00,
2013-01-21 18:06:00,36.5,6.4,30.21,North,350,7.0,17.0,28,0.00,,,0.00,0,Wunderground v.1.15,2013-01-22 01:06:00,
2013-01-21 18:11:00,36.3,6.3,30.21,West,281,7.0,11.0,28,0.00,,,0.00,0,Wunderground v.1.15,2013-01-22 01:11:00,
2013-01-21 18:17:00,36.2,6.2,30.21,NW,309,7.0,11.0,28,0.00,,,0.00,0,Wunderground v.1.15,2013-01-22 01:17:00,
2013-01-21 18:22:00,36.2,6.2,30.21,WSW,250,7.0,7.0,28,0.00,,,0.00,0,Wunderground v.1.15,2013-01-22 01:22:00,
2013-01-21 18:27:00,36.1,6.1,30.22,WNW,283,7.0,9.0,28,0.00,,,0.00,0,Wunderground v.1.15,2013-01-22 01:27:00,
2013-01-21 18:32:00,36.0,6.0,30.22,WNW,284,7.0,8.0,28,0.00,,,0.00,0,Wunderground v.1.15,2013-01-22 01:32:00,
2013-01-21 18:38:00,36.1,5.3,30.22,West,264,7.0,11.0,27,0.00,,,0.00,0,Wunderground v.1.15,2013-01-22 01:38:00,
2013-01-21 18:44:00,36.0,5.2,30.22,WNW,288,7.0,7.0,27,0.00,,,0.00,0,Wunderground v.1.15,2013-01-22 01:44:00,
2013-01-21 18:49:00,36.0,5.2,30.23,WNW,296,6.0,9.0,27,0.00,,,0.00,0,Wunderground v.1.15,2013-01-22 01:49:00,
2013-01-21 18:55:00,35.8,5.0,30.23,NW,325,6.0,10.0,27,0.00,,,0.00,0,Wunderground v.1.15,2013-01-22 01:55:00,
2013-01-21 19:00:00,35.6,4.8,30.23,West,279,5.0,6.0,27,0.00,,,0.00,0,Wunderground v.1.15,2013-01-22 02:00:00,
2013-01-21 19:05:00,35.5,4.8,30.23,NNW,339,5.0,18.0,27,0.00,,,0.00,0,Wunderground v.1.15,2013-01-22 02:05:00,
2013-01-21 19:11:00,35.4,4.7,30.23,WNW,302,6.0,6.0,27,0.00,,,0.00,0,Wunderground v.1.15,2013-01-22 02:11:00,
2013-01-21 19:17:00,35.3,4.6,30.23,West,264,7.0,10.0,27,0.00,,,0.00,0,Wunderground v.1.15,2013-01-22 02:17:00,
2013-01-21 19:22:00,35.2,4.5,30.23,WNW,292,7.0,15.0,27,0.00,,,0.00,0,Wunderground v.1.15,2013-01-22 02:22:00,
2013-01-21 19:27:00,35.2,4.5,30.22,WNW,299,8.0,18.0,27,0.00,,,0.00,0,Wunderground v.1.15,2013-01-22 02:27:00,
2013-01-21 19:32:00,35.0,4.3,30.22,West,265,8.0,9.0,27,0.00,,,0.00,0,Wunderground v.1.15,2013-01-22 02:32:00,
2013-01-21 19:38:00,34.8,4.2,30.22,WSW,246,7.0,10.0,27,0.00,,,0.00,0,Wunderground v.1.15,2013-01-22 02:38:00,
2013-01-21 19:43:00,34.2,4.4,30.21,SW,220,6.0,8.0,28,0.00,,,0.00,0,Wunderground v.1.15,2013-01-22 02:43:00,
2013-01-21 19:48:00,33.7,4.8,30.21,SSW,196,5.0,8.0,29,0.00,,,0.00,0,Wunderground v.1.15,2013-01-22 02:48:00,
2013-01-21 19:53:00,32.9,4.1,30.20,West,281,4.0,6.0,29,0.00,,,0.00,0,Wunderground v.1.15,2013-01-22 02:53:00,
2013-01-21 19:58:00,32.9,3.3,30.21,WSW,253,5.0,12.0,28,0.00,,,0.00,0,Wunderground v.1.15,2013-01-22 02:58:00,
2013-01-21 20:04:00,33.8,3.3,30.20,NW,322,7.0,19.0,27,0.00,,,0.00,0,Wunderground v.1.15,2013-01-22 03:04:00,
2013-01-21 20:09:00,34.4,3.0,30.21,WNW,286,10.0,19.0,26,0.00,,,0.00,0,Wunderground v.1.15,2013-01-22 03:09:00,
2013-01-21 20:15:00,34.8,2.5,30.21,WNW,282,10.0,10.0,25,0.00,,,0.00,0,Wunderground v.1.15,2013-01-22 03:15:00,
2013-01-21 20:20:00,35.1,2.7,30.22,WNW,298,8.0,8.0,25,0.00,,,0.00,0,Wunderground v.1.15,2013-01-22 03:20:00,
2013-01-21 20:26:00,34.8,2.5,30.22,SW,231,8.0,9.0,25,0.00,,,0.00,0,Wunderground v.1.15,2013-01-22 03:26:00,
2013-01-21 20:31:00,33.9,3.4,30.22,SW,221,5.0,6.0,27,0.00,,,0.00,0,Wunderground v.1.15,2013-01-22 03:31:00,
2013-01-21 20:37:00,33.3,2.9,30.22,WSW,252,5.0,6.0,27,0.00,,,0.00,0,Wunderground v.1.15,2013-01-22 03:37:00,
2013-01-21 20:42:00,33.3,1.2,30.22,WNW,296,6.0,15.0,25,0.00,,,0.00,0,Wunderground v.1.15,2013-01-22 03:42:00,
2013-01-21 20:47:00,33.6,2.3,30.22,WSW,240,7.0,15.0,26,0.00,,,0.00,0,Wunderground v.1.15,2013-01-22 03:47:00,
2013-01-21 20:52:00,33.9,0.8,30.22,WSW,245,7.0,8.0,24,0.00,,,0.00,0,Wunderground v.1.15,2013-01-22 03:52:00,
2013-01-21 20:58:00,34.3,1.2,30.22,West,267,8.0,11.0,24,0.00,,,0.00,0,Wunderground v.1.15,2013-01-22 03:58:00,
2013-01-21 21:03:00,34.4,0.4,30.22,NW,304,7.0,19.0,23,0.00,,,0.00,0,Wunderground v.1.15,2013-01-22 04:03:00,
2013-01-21 21:09:00,34.4,0.4,30.22,West,281,7.0,19.0,23,0.00,,,0.00,0,Wunderground v.1.15,2013-01-22 04:09:00,
2013-01-21 21:15:00,34.4,-0.6,30.22,NW,304,8.0,13.0,22,0.00,,,0.00,0,Wunderground v.1.15,2013-01-22 04:15:00,
2013-01-21 21:21:00,34.4,0.4,30.22,WNW,285,8.0,9.0,23,0.00,,,0.00,0,Wunderground v.1.15,2013-01-22 04:21:00,
2013-01-21 21:26:00,34.4,0.4,30.21,WNW,288,7.0,10.0,23,0.00,,,0.00,0,Wunderground v.1.15,2013-01-22 04:26:00,
2013-01-21 21:31:00,34.4,-0.6,30.21,NW,307,8.0,11.0,22,0.00,,,0.00,0,Wunderground v.1.15,2013-01-22 04:31:00,
2013-01-21 21:37:00,34.6,-0.4,30.21,North,355,9.0,14.0,22,0.00,,,0.00,0,Wunderground v.1.15,2013-01-22 04:37:00,
2013-01-21 21:42:00,34.7,-1.3,30.21,WNW,290,10.0,18.0,21,0.00,,,0.00,0,Wunderground v.1.15,2013-01-22 04:42:00,
2013-01-21 21:47:00,34.8,-1.2,30.22,WNW,300,10.0,18.0,21,0.00,,,0.00,0,Wunderground v.1.15,2013-01-22 04:47:00,
2013-01-21 21:53:00,34.8,-1.2,30.22,SW,236,10.0,15.0,21,0.00,,,0.00,0,Wunderground v.1.15,2013-01-22 04:53:00,
2013-01-21 21:58:00,34.7,-1.3,30.22,WNW,287,9.0,15.0,21,0.00,,,0.00,0,Wunderground v.1.15,2013-01-22 04:58:00,
2013-01-21 22:02:00,34.4,-0.6,30.23,WSW,257,7.0,18.0,22,0.00,,,0.00,0,Wunderground v.1.15,2013-01-22 05:02:00,
2013-01-21 22:04:00,34.1,-0.8,30.23,WNW,284,6.0,18.0,22,0.00,,,0.00,0,Wunderground v.1.15,2013-01-22 05:04:00,
2013-01-21 22:05:00,34.0,-0.9,30.23,NNW,346,6.0,18.0,22,0.00,,,0.00,0,Wunderground v.1.15,2013-01-22 05:05:00,
2013-01-21 22:07:00,33.9,-1.0,30.23,West,261,5.0,18.0,22,0.00,,,0.00,0,Wunderground v.1.15,2013-01-22 05:07:00,
2013-01-21 22:13:00,34.4,-1.6,30.23,WSW,252,7.0,12.0,21,0.00,,,0.00,0,Wunderground v.1.15,2013-01-22 05:13:00,
2013-01-21 22:18:00,34.4,-1.6,30.23,WNW,294,8.0,12.0,21,0.00,,,0.00,0,Wunderground v.1.15,2013-01-22 05:18:00,
2013-01-21 22:23:00,34.4,-1.6,30.23,SW,230,7.0,13.0,21,0.00,,,0.00,0,Wunderground v.1.15,2013-01-22 05:23:00,
2013-01-21 22:29:00,34.4,-2.6,30.23,WNW,298,8.0,13.0,20,0.00,,,0.00,0,Wunderground v.1.15,2013-01-22 05:29:00,
2013-01-21 22:34:00,34.6,-2.4,30.23,North,360,9.0,16.0,20,0.00,,,0.00,0,Wunderground v.1.15,2013-01-22 05:34:00,
2013-01-21 22:40:00,34.4,-2.6,30.23,WSW,258,8.0,8.0,20,0.00,,,0.00,0,Wunderground v.1.15,2013-01-22 05:40:00,
2013-01-21 22:46:00,34.1,-1.8,30.23,West,269,6.0,9.0,21,0.00,,,0.00,0,Wunderground v.1.15,2013-01-22 05:46:00,
2013-01-21 22:51:00,33.2,-2.6,30.23,West,268,6.0,11.0,21,0.00,,,0.00,0,Wunderground v.1.15,2013-01-22 05:51:00,
2013-01-21 22:57:00,32.6,-2.1,30.22,NW,318,6.0,11.0,22,0.00,,,0.00,0,Wunderground v.1.15,2013-01-22 05:57:00,
2013-01-21 23:03:00,32.0,-2.6,30.22,WNW,291,6.0,22.0,22,0.00,,,0.00,0,Wunderground v.1.15,2013-01-22 06:03:00,
2013-01-21 23:08:00,31.5,-2.1,30.22,WNW,302,5.0,22.0,23,0.00,,,0.00,0,Wunderground v.1.15,2013-01-22 06:08:00,
2013-01-21 23:13:00,30.7,-1.9,30.23,SSW,211,4.0,5.0,24,0.00,,,0.00,0,Wunderground v.1.15,2013-01-22 06:13:00,
2013-01-21 23:19:00,30.0,-2.5,30.22,West,259,4.0,7.0,24,0.00,,,0.00,0,Wunderground v.1.15,2013-01-22 06:19:00,
2013-01-21 23:25:00,29.5,-2.9,30.22,SW,217,4.0,7.0,24,0.00,,,0.00,0,Wunderground v.1.15,2013-01-22 06:25:00,
2013-01-21 23:31:00,29.6,-2.8,30.22,West,275,5.0,5.0,24,0.00,,,0.00,0,Wunderground v.1.15,2013-01-22 06:31:00,
2013-01-21 23:36:00,29.9,-2.6,30.22,WSW,252,6.0,8.0,24,0.00,,,0.00,0,Wunderground v.1.15,2013-01-22 06:36:00,
2013-01-21 23:42:00,30.5,-3.9,30.22,West,267,7.0,10.0,22,0.00,,,0.00,0,Wunderground v.1.15,2013-01-22 06:42:00,
2013-01-21 23:47:00,31.2,-3.3,30.22,WSW,240,6.0,10.0,22,0.00,,,0.00,0,Wunderground v.1.15,2013-01-22 06:47:00,
2013-01-21 23:53:00,31.6,-3.9,30.22,NW,319,6.0,11.0,21,0.00,,,0.00,0,Wunderground v.1.15,2013-01-22 06:53:00,
2013-01-21 23:58:00,31.9,-4.7,30.22,WNW,288,7.0,16.0,20,0.00,,,0.00,0,Wunderground v.1.15,2013-01-22 06:58:00,